,,,PA_Meas_PMT16A,,PR_Meas_QMR101_102,,RH_Meas_QMH101,,SR_Meas_QMS101,,TA_Meas_QMH101,,GenWind,,GenWind,
date,time,status,PA,status,PR,status,RH,status,SR,status,TA,status,DirAvg,status,SpdAvg,
2011-06-24, 00:00:04,VALID,1003.56,VALID,0,INVALID,163.693,VALID,0,VALID,24.8716,VALID,132,VALID,0,
2011-06-24, 00:01:04,VALID,1003.59,VALID,0,INVALID,163.655,VALID,0,VALID,24.9885,VALID,124,VALID,0,
2011-06-24, 00:02:04,VALID,1003.57,VALID,0,INVALID,163.708,VALID,0,VALID,25.0858,VALID,145,VALID,0,
2011-06-24, 00:03:04,VALID,1003.56,VALID,0,INVALID,163.662,VALID,0,VALID,25.0839,VALID,87,VALID,0,
2011-06-24, 00:04:04,VALID,1003.51,VALID,0,INVALID,163.685,VALID,0,VALID,25.1442,VALID,129,VALID,0,
2011-06-24, 00:05:04,VALID,1003.52,VALID,0,INVALID,163.693,VALID,0,VALID,25.1832,VALID,95,VALID,0,
2011-06-24, 00:06:04,VALID,1003.52,VALID,0,INVALID,163.655,VALID,0,VALID,25.2027,VALID,83,VALID,0,
2011-06-24, 00:07:04,VALID,1003.49,VALID,0,INVALID,163.693,VALID,0,VALID,25.2221,VALID,119,VALID,0,
2011-06-24, 00:08:04,VALID,1003.47,VALID,0,INVALID,163.678,VALID,0,VALID,25.2007,VALID,104,VALID,0,
2011-06-24, 00:09:04,VALID,1003.41,VALID,0,INVALID,163.693,VALID,0,VALID,25.1637,VALID,82,VALID,0,
2011-06-24, 00:10:04,VALID,1003.36,VALID,0,INVALID,163.678,VALID,0,VALID,25.1248,VALID,83,VALID,0,
2011-06-24, 00:11:04,VALID,1003.39,VALID,0,INVALID,163.678,VALID,0,VALID,25.1053,VALID,108,VALID,0,
2011-06-24, 00:12:04,VALID,1003.37,VALID,0,INVALID,163.678,VALID,0,VALID,25.1423,VALID,107,VALID,0,
2011-06-24, 00:13:04,VALID,1003.4,VALID,0,INVALID,163.693,VALID,0,VALID,25.1618,VALID,104,VALID,0,
2011-06-24, 00:14:04,VALID,1003.4,VALID,0,INVALID,163.678,VALID,0,VALID,25.2027,VALID,114,VALID,0,
2011-06-24, 00:15:04,VALID,1003.4,VALID,0,INVALID,163.693,VALID,0,VALID,25.2397,VALID,111,VALID,0,
2011-06-24, 00:16:04,VALID,1003.39,VALID,0,INVALID,163.685,VALID,0,VALID,25.3195,VALID,102,VALID,0,
2011-06-24, 00:17:04,VALID,1003.4,VALID,0,INVALID,163.662,VALID,0,VALID,25.3779,VALID,103,VALID,0,
2011-06-24, 00:18:04,VALID,1003.35,VALID,0,INVALID,163.662,VALID,0,VALID,25.4363,VALID,133,VALID,0,
2011-06-24, 00:19:04,VALID,1003.37,VALID,0,INVALID,163.655,VALID,0,VALID,25.4363,VALID,68,VALID,0,
2011-06-24, 00:20:04,VALID,1003.35,VALID,0,INVALID,163.67,VALID,0,VALID,25.4149,VALID,88,VALID,0,
2011-06-24, 00:21:04,VALID,1003.37,VALID,0,INVALID,163.624,VALID,0,VALID,25.4363,VALID,110,VALID,0,
2011-06-24, 00:22:04,VALID,1003.36,VALID,0,INVALID,163.662,VALID,0,VALID,25.4539,VALID,98,VALID,0,
2011-06-24, 00:23:04,VALID,1003.35,VALID,0,INVALID,163.639,VALID,0,VALID,25.4948,VALID,105,VALID,0,
2011-06-24, 00:24:04,VALID,1003.33,VALID,0,INVALID,163.655,VALID,0,VALID,25.5318,VALID,139,VALID,0,
2011-06-24, 00:25:04,VALID,1003.34,VALID,0,INVALID,163.647,VALID,0,VALID,25.5532,VALID,88,VALID,0,
2011-06-24, 00:26:04,VALID,1003.34,VALID,0,INVALID,163.647,VALID,0,VALID,25.5532,VALID,98,VALID,0,
2011-06-24, 00:27:04,VALID,1003.3,VALID,0,INVALID,163.639,VALID,0,VALID,25.5513,VALID,108,VALID,0,
2011-06-24, 00:28:04,VALID,1003.29,VALID,0,INVALID,163.639,VALID,0,VALID,25.5513,VALID,131,VALID,0,
2011-06-24, 00:29:04,VALID,1003.3,VALID,0,INVALID,163.632,VALID,0,VALID,25.5902,VALID,116,VALID,0,
2011-06-24, 00:30:04,VALID,1003.29,VALID,0,INVALID,163.632,VALID,0,VALID,25.6116,VALID,92,VALID,0,
2011-06-24, 00:31:04,VALID,1003.28,VALID,0,INVALID,163.662,VALID,0,VALID,25.6506,VALID,124,VALID,0,
2011-06-24, 00:32:04,VALID,1003.28,VALID,0,INVALID,163.609,VALID,0,VALID,25.7265,VALID,122,VALID,0,
2011-06-24, 00:33:04,VALID,1003.25,VALID,0,INVALID,163.624,VALID,0,VALID,25.7869,VALID,116,VALID,0,
2011-06-24, 00:34:04,VALID,1003.25,VALID,0,INVALID,163.617,VALID,0,VALID,25.7655,VALID,122,VALID,0,
2011-06-24, 00:35:04,VALID,1003.23,VALID,0,INVALID,163.617,VALID,0,VALID,25.8064,VALID,117,VALID,0,
2011-06-24, 00:36:04,VALID,1003.24,VALID,0,INVALID,163.67,VALID,0,VALID,25.8044,VALID,120,VALID,0,
2011-06-24, 00:37:04,VALID,1003.24,VALID,0,INVALID,163.639,VALID,0,VALID,25.785,VALID,110,VALID,0,
2011-06-24, 00:38:04,VALID,1003.24,VALID,0,INVALID,163.639,VALID,0,VALID,25.7655,VALID,122,VALID,0,
2011-06-24, 00:39:04,VALID,1003.26,VALID,0,INVALID,163.632,VALID,0,VALID,25.785,VALID,127,VALID,0,
2011-06-24, 00:40:04,VALID,1003.21,VALID,0,INVALID,163.624,VALID,0,VALID,25.8239,VALID,124,VALID,0,
2011-06-24, 00:41:04,VALID,1003.23,VALID,0,INVALID,163.609,VALID,0,VALID,25.8434,VALID,108,VALID,0,
2011-06-24, 00:42:04,VALID,1003.2,VALID,0,INVALID,163.639,VALID,0,VALID,25.8239,VALID,106,VALID,0,
2011-06-24, 00:43:04,VALID,1003.2,VALID,0,INVALID,163.617,VALID,0,VALID,25.8453,VALID,84,VALID,0,
2011-06-24, 00:44:04,VALID,1003.18,VALID,0,INVALID,163.617,VALID,0,VALID,25.8259,VALID,113,VALID,0,
2011-06-24, 00:45:04,VALID,1003.16,VALID,0,INVALID,163.594,VALID,0,VALID,25.8259,VALID,113,VALID,0,
2011-06-24, 00:46:04,VALID,1003.15,VALID,0,INVALID,163.601,VALID,0,VALID,25.8239,VALID,128,VALID,0,
2011-06-24, 00:47:04,VALID,1003.12,VALID,0,INVALID,163.632,VALID,0,VALID,25.8044,VALID,104,VALID,0,
2011-06-24, 00:48:04,VALID,1003.13,VALID,0,INVALID,163.624,VALID,0,VALID,25.8239,VALID,127,VALID,0,
2011-06-24, 00:49:04,VALID,1003.14,VALID,0,INVALID,163.601,VALID,0,VALID,25.9038,VALID,114,VALID,0,
2011-06-24, 00:50:04,VALID,1003.11,VALID,0,INVALID,163.609,VALID,0,VALID,25.8843,VALID,122,VALID,0,
2011-06-24, 00:51:05,VALID,1003.08,VALID,0,INVALID,163.624,VALID,0,VALID,25.8648,VALID,108,VALID,0,
2011-06-24, 00:52:05,VALID,1003.06,VALID,0,INVALID,163.632,VALID,0,VALID,25.8044,VALID,93,VALID,0,
2011-06-24, 00:53:05,VALID,1003.08,VALID,0,INVALID,163.617,VALID,0,VALID,25.7869,VALID,99,VALID,0,
2011-06-24, 00:54:05,VALID,1003.1,VALID,0,INVALID,163.617,VALID,0,VALID,25.744,VALID,100,VALID,0,
2011-06-24, 00:55:05,VALID,1003.04,VALID,0,INVALID,163.601,VALID,0,VALID,25.8843,VALID,108,VALID,0,
2011-06-24, 00:56:05,VALID,1003.02,VALID,0,INVALID,163.632,VALID,0,VALID,25.9018,VALID,121,VALID,0,
2011-06-24, 00:57:05,VALID,1003.01,VALID,0,INVALID,163.617,VALID,0,VALID,25.9642,VALID,115,VALID,0,
2011-06-24, 00:58:05,VALID,1003.07,VALID,0,INVALID,163.601,VALID,0,VALID,25.9038,VALID,110,VALID,0,
2011-06-24, 00:59:05,VALID,1003.05,VALID,0,INVALID,163.617,VALID,0,VALID,25.8648,VALID,129,VALID,0,
2011-06-24, 01:00:05,VALID,1003,VALID,0,INVALID,163.624,VALID,0,VALID,25.8453,VALID,139,VALID,0,
2011-06-24, 01:01:05,VALID,1003.04,VALID,0,INVALID,163.609,VALID,0,VALID,25.8434,VALID,103,VALID,0,
2011-06-24, 01:02:05,VALID,1003,VALID,0,INVALID,163.586,VALID,0,VALID,25.8239,VALID,101,VALID,0,
2011-06-24, 01:03:05,VALID,1002.98,VALID,0,INVALID,163.617,VALID,0,VALID,25.8239,VALID,118,VALID,0,
2011-06-24, 01:04:05,VALID,1002.97,VALID,0,INVALID,163.632,VALID,0,VALID,25.785,VALID,89,VALID,0,
2011-06-24, 01:05:05,VALID,1002.97,VALID,0,INVALID,163.586,VALID,0,VALID,25.746,VALID,114,VALID,0,
2011-06-24, 01:06:05,VALID,1002.94,VALID,0,INVALID,163.624,VALID,0,VALID,25.7674,VALID,118,VALID,0,
2011-06-24, 01:07:05,VALID,1002.94,VALID,0,INVALID,163.624,VALID,0,VALID,25.7071,VALID,117,VALID,0,
2011-06-24, 01:08:05,VALID,1002.93,VALID,0,INVALID,163.609,VALID,0,VALID,25.6895,VALID,134,VALID,0,
2011-06-24, 01:09:05,VALID,1002.93,VALID,0,INVALID,163.647,VALID,0,VALID,25.6486,VALID,125,VALID,0,
2011-06-24, 01:10:05,VALID,1002.93,VALID,0,INVALID,163.624,VALID,0,VALID,25.67,VALID,100,VALID,0,
2011-06-24, 01:11:05,VALID,1002.93,VALID,0,INVALID,163.632,VALID,0,VALID,25.67,VALID,91,VALID,0,
2011-06-24, 01:12:05,VALID,1002.95,VALID,0,INVALID,163.647,VALID,0,VALID,25.7304,VALID,107,VALID,0,
2011-06-24, 01:13:05,VALID,1002.93,VALID,0,INVALID,163.655,VALID,0,VALID,25.6895,VALID,108,VALID,0,
2011-06-24, 01:14:05,VALID,1002.92,VALID,0,INVALID,163.632,VALID,0,VALID,25.6681,VALID,99,VALID,0,
2011-06-24, 01:15:05,VALID,1002.91,VALID,0,INVALID,163.655,VALID,0.100563,VALID,25.6467,VALID,88,VALID,0,
2011-06-24, 01:16:05,VALID,1002.92,VALID,0,INVALID,163.624,VALID,0.100563,VALID,25.6681,VALID,108,VALID,0,
2011-06-24, 01:17:05,VALID,1002.93,VALID,0,INVALID,163.617,VALID,0,VALID,25.7071,VALID,99,VALID,0,
2011-06-24, 01:18:05,VALID,1002.92,VALID,0,INVALID,163.639,VALID,0.100563,VALID,25.746,VALID,113,VALID,0,
2011-06-24, 01:19:05,VALID,1002.9,VALID,0,INVALID,163.632,VALID,0,VALID,25.8044,VALID,106,VALID,0,
2011-06-24, 01:20:05,VALID,1002.94,VALID,0,INVALID,163.617,VALID,0,VALID,25.8239,VALID,121,VALID,0,
2011-06-24, 01:21:05,VALID,1002.91,VALID,0,INVALID,163.624,VALID,0,VALID,25.7655,VALID,69,VALID,0,
2011-06-24, 01:22:05,VALID,1002.91,VALID,0,INVALID,163.639,VALID,0.100563,VALID,25.7655,VALID,102,VALID,0,
2011-06-24, 01:23:05,VALID,1002.91,VALID,0,INVALID,163.67,VALID,0.100563,VALID,25.746,VALID,137,VALID,0,
2011-06-24, 01:24:05,VALID,1002.94,VALID,0,INVALID,163.632,VALID,0,VALID,25.7265,VALID,104,VALID,0,
2011-06-24, 01:25:05,VALID,1002.95,VALID,0,INVALID,163.624,VALID,0.100563,VALID,25.746,VALID,97,VALID,0,
2011-06-24, 01:26:05,VALID,1002.97,VALID,0,INVALID,163.617,VALID,0,VALID,25.746,VALID,96,VALID,0,
2011-06-24, 01:27:05,VALID,1002.97,VALID,0,INVALID,163.609,VALID,0,VALID,25.7655,VALID,100,VALID,0,
2011-06-24, 01:28:05,VALID,1003,VALID,0,INVALID,163.624,VALID,0.100563,VALID,25.7655,VALID,61,VALID,0,
2011-06-24, 01:29:05,VALID,1002.95,VALID,0,INVALID,163.601,VALID,0.100563,VALID,25.7655,VALID,137,VALID,0,
2011-06-24, 01:30:05,VALID,1002.95,VALID,0,INVALID,163.617,VALID,0.100563,VALID,25.8044,VALID,112,VALID,0,
2011-06-24, 01:31:05,VALID,1002.96,VALID,0,INVALID,163.632,VALID,0.100563,VALID,25.783,VALID,122,VALID,0,
2011-06-24, 01:32:05,VALID,1003.01,VALID,0,INVALID,163.617,VALID,0.100563,VALID,25.8025,VALID,104,VALID,0,
2011-06-24, 01:33:05,VALID,1002.98,VALID,0,INVALID,163.632,VALID,0.100563,VALID,25.8239,VALID,124,VALID,0,
2011-06-24, 01:34:05,VALID,1003,VALID,0,INVALID,163.609,VALID,0.100563,VALID,25.8239,VALID,112,VALID,0,
2011-06-24, 01:35:05,VALID,1002.99,VALID,0,INVALID,163.639,VALID,0.100563,VALID,25.8044,VALID,125,VALID,0,
2011-06-24, 01:36:05,VALID,1002.97,VALID,0,INVALID,163.594,VALID,0.100563,VALID,25.8823,VALID,105,VALID,0,
2011-06-24, 01:37:05,VALID,1002.96,VALID,0,INVALID,163.632,VALID,0.100563,VALID,25.8823,VALID,100,VALID,0,
2011-06-24, 01:38:05,VALID,1003,VALID,0,INVALID,163.601,VALID,0.100563,VALID,25.8823,VALID,147,VALID,0,
2011-06-24, 01:39:05,VALID,1002.98,VALID,0,INVALID,163.617,VALID,0.100563,VALID,25.8629,VALID,128,VALID,0,
2011-06-24, 01:40:05,VALID,1002.98,VALID,0,INVALID,163.624,VALID,0.100563,VALID,25.9018,VALID,111,VALID,0,
2011-06-24, 01:41:05,VALID,1002.93,VALID,0,INVALID,163.601,VALID,0,VALID,25.9817,VALID,128,VALID,0,
2011-06-24, 01:42:05,VALID,1002.94,VALID,0,INVALID,163.617,VALID,0.100563,VALID,25.9797,VALID,122,VALID,0,
2011-06-24, 01:43:05,VALID,1002.93,VALID,0,INVALID,163.609,VALID,0.100563,VALID,25.9797,VALID,126,VALID,0,
2011-06-24, 01:44:05,VALID,1002.93,VALID,0,INVALID,163.609,VALID,0,VALID,25.9583,VALID,126,VALID,0,
2011-06-24, 01:45:05,VALID,1002.93,VALID,0,INVALID,163.601,VALID,0,VALID,25.9817,VALID,103,VALID,0,
2011-06-24, 01:46:05,VALID,1002.95,VALID,0,INVALID,163.617,VALID,0,VALID,25.9427,VALID,108,VALID,0,
2011-06-24, 01:47:05,VALID,1002.95,VALID,0,INVALID,163.609,VALID,0,VALID,25.9622,VALID,131,VALID,0,
2011-06-24, 01:48:05,VALID,1002.94,VALID,0,INVALID,163.594,VALID,0,VALID,25.9642,VALID,119,VALID,0,
2011-06-24, 01:49:05,VALID,1002.95,VALID,0,INVALID,163.632,VALID,0,VALID,25.9232,VALID,115,VALID,0,
2011-06-24, 01:50:05,VALID,1002.95,VALID,0,INVALID,163.632,VALID,0,VALID,25.9252,VALID,119,VALID,0,
2011-06-24, 01:51:05,VALID,1002.94,VALID,0,INVALID,163.617,VALID,0,VALID,25.8629,VALID,99,VALID,0,
2011-06-24, 01:52:05,VALID,1002.92,VALID,0,INVALID,163.601,VALID,0,VALID,25.9038,VALID,104,VALID,0,
2011-06-24, 01:53:05,VALID,1002.98,VALID,0,INVALID,163.617,VALID,0,VALID,25.9232,VALID,108,VALID,0,
2011-06-24, 01:54:05,VALID,1002.94,VALID,0,INVALID,163.617,VALID,0,VALID,25.9622,VALID,135,VALID,0,
2011-06-24, 01:55:05,VALID,1002.89,VALID,0,INVALID,163.601,VALID,0,VALID,25.9232,VALID,158,VALID,0,
2011-06-24, 01:56:05,VALID,1002.87,VALID,0,INVALID,163.609,VALID,0,VALID,25.8239,VALID,100,VALID,0,
2011-06-24, 01:57:05,VALID,1002.88,VALID,0,INVALID,163.609,VALID,0,VALID,25.7674,VALID,134,VALID,0,
2011-06-24, 01:58:05,VALID,1002.88,VALID,0,INVALID,163.655,VALID,0,VALID,25.6895,VALID,110,VALID,0,
2011-06-24, 01:59:05,VALID,1002.85,VALID,0,INVALID,163.647,VALID,0,VALID,25.6506,VALID,111,VALID,0,
2011-06-24, 02:00:05,VALID,1002.82,VALID,0,INVALID,163.624,VALID,0,VALID,25.6077,VALID,103,VALID,0,
2011-06-24, 02:01:05,VALID,1002.81,VALID,0,INVALID,163.617,VALID,0.100563,VALID,25.5902,VALID,134,VALID,0,
2011-06-24, 02:02:05,VALID,1002.83,VALID,0,INVALID,163.655,VALID,0,VALID,25.5123,VALID,97,VALID,0,
2011-06-24, 02:03:05,VALID,1002.83,VALID,0,INVALID,163.639,VALID,0.100563,VALID,25.4539,VALID,88,VALID,0,
2011-06-24, 02:04:05,VALID,1002.84,VALID,0,INVALID,163.647,VALID,0,VALID,25.376,VALID,99,VALID,0,
2011-06-24, 02:05:05,VALID,1002.82,VALID,0,INVALID,163.662,VALID,0,VALID,25.337,VALID,120,VALID,0,
2011-06-24, 02:06:05,VALID,1002.77,VALID,0,INVALID,163.685,VALID,0,VALID,25.3955,VALID,107,VALID,0,
2011-06-24, 02:07:05,VALID,1002.75,VALID,0,INVALID,163.655,VALID,0,VALID,25.376,VALID,104,VALID,0,
2011-06-24, 02:08:05,VALID,1002.73,VALID,0,INVALID,163.647,VALID,0.100563,VALID,25.3974,VALID,127,VALID,0,
2011-06-24, 02:09:05,VALID,1002.76,VALID,0,INVALID,163.639,VALID,0.100563,VALID,25.376,VALID,95,VALID,0,
2011-06-24, 02:10:05,VALID,1002.77,VALID,0,INVALID,163.67,VALID,0.100563,VALID,25.337,VALID,120,VALID,0,
2011-06-24, 02:11:05,VALID,1002.8,VALID,0,INVALID,163.655,VALID,0.100563,VALID,25.337,VALID,111,VALID,0,
2011-06-24, 02:12:05,VALID,1002.78,VALID,0,INVALID,163.693,VALID,0,VALID,25.3974,VALID,111,VALID,0,
2011-06-24, 02:13:05,VALID,1002.79,VALID,0,INVALID,163.678,VALID,0,VALID,25.4169,VALID,126,VALID,0,
2011-06-24, 02:14:05,VALID,1002.78,VALID,0,INVALID,163.655,VALID,0,VALID,25.3955,VALID,128,VALID,0,
2011-06-24, 02:15:05,VALID,1002.78,VALID,0,INVALID,163.655,VALID,0.100563,VALID,25.4753,VALID,133,VALID,0,
2011-06-24, 02:16:05,VALID,1002.79,VALID,0,INVALID,163.662,VALID,0,VALID,25.4344,VALID,113,VALID,0,
2011-06-24, 02:17:05,VALID,1002.77,VALID,0,INVALID,163.647,VALID,0.100563,VALID,25.4539,VALID,127,VALID,0,
2011-06-24, 02:18:05,VALID,1002.79,VALID,0,INVALID,163.647,VALID,0.100563,VALID,25.4734,VALID,118,VALID,0,
2011-06-24, 02:19:05,VALID,1002.78,VALID,0,INVALID,163.662,VALID,0,VALID,25.4539,VALID,117,VALID,0,
2011-06-24, 02:20:05,VALID,1002.77,VALID,0,INVALID,163.632,VALID,0,VALID,25.4734,VALID,130,VALID,0,
2011-06-24, 02:21:05,VALID,1002.8,VALID,0,INVALID,163.639,VALID,0.100563,VALID,25.4539,VALID,101,VALID,0,
2011-06-24, 02:22:05,VALID,1002.8,VALID,0,INVALID,163.678,VALID,0,VALID,25.4363,VALID,115,VALID,0,
2011-06-24, 02:23:05,VALID,1002.8,VALID,0,INVALID,163.662,VALID,0,VALID,25.3741,VALID,123,VALID,0,
2011-06-24, 02:24:05,VALID,1002.78,VALID,0,INVALID,163.655,VALID,0.100563,VALID,25.4344,VALID,107,VALID,0,
2011-06-24, 02:25:05,VALID,1002.8,VALID,0,INVALID,163.639,VALID,0.100563,VALID,25.4344,VALID,94,VALID,0,
2011-06-24, 02:26:05,VALID,1002.8,VALID,0,INVALID,163.662,VALID,0,VALID,25.4734,VALID,121,VALID,0,
2011-06-24, 02:27:05,VALID,1002.75,VALID,0,INVALID,163.655,VALID,0,VALID,25.4928,VALID,124,VALID,0,
2011-06-24, 02:28:05,VALID,1002.73,VALID,0,INVALID,163.655,VALID,0,VALID,25.4734,VALID,119,VALID,0,
2011-06-24, 02:29:05,VALID,1002.75,VALID,0,INVALID,163.655,VALID,0,VALID,25.452,VALID,94,VALID,0,
2011-06-24, 02:30:05,VALID,1002.79,VALID,0,INVALID,163.655,VALID,0,VALID,25.5318,VALID,115,VALID,0,
2011-06-24, 02:31:05,VALID,1002.79,VALID,0,INVALID,163.639,VALID,0,VALID,25.5532,VALID,114,VALID,0,
2011-06-24, 02:32:05,VALID,1002.8,VALID,0,INVALID,163.632,VALID,0,VALID,25.5941,VALID,86,VALID,0,
2011-06-24, 02:33:05,VALID,1002.79,VALID,0,INVALID,163.624,VALID,0,VALID,25.5727,VALID,94,VALID,0,
2011-06-24, 02:34:05,VALID,1002.77,VALID,0,INVALID,163.617,VALID,0,VALID,25.5921,VALID,94,VALID,0,
2011-06-24, 02:35:05,VALID,1002.81,VALID,0,INVALID,163.639,VALID,0,VALID,25.67,VALID,107,VALID,0,
2011-06-24, 02:36:05,VALID,1002.8,VALID,0,INVALID,163.632,VALID,0,VALID,25.709,VALID,113,VALID,0,
2011-06-24, 02:37:05,VALID,1002.8,VALID,0,INVALID,163.624,VALID,0,VALID,25.7109,VALID,99,VALID,0,
2011-06-24, 02:38:05,VALID,1002.81,VALID,0,INVALID,163.632,VALID,0,VALID,25.6486,VALID,80,VALID,0,
2011-06-24, 02:39:05,VALID,1002.8,VALID,0,INVALID,163.662,VALID,0,VALID,25.6506,VALID,93,VALID,0,
2011-06-24, 02:40:05,VALID,1002.79,VALID,0,INVALID,163.647,VALID,0,VALID,25.67,VALID,103,VALID,0,
2011-06-24, 02:41:05,VALID,1002.77,VALID,0,INVALID,163.647,VALID,0,VALID,25.6506,VALID,114,VALID,0,
2011-06-24, 02:42:05,VALID,1002.8,VALID,0,INVALID,163.601,VALID,0,VALID,25.6506,VALID,123,VALID,0,
2011-06-24, 02:43:05,VALID,1002.75,VALID,0,INVALID,163.632,VALID,0,VALID,25.6116,VALID,144,VALID,0,
2011-06-24, 02:44:05,VALID,1002.73,VALID,0,INVALID,163.632,VALID,0,VALID,25.6116,VALID,107,VALID,0,
2011-06-24, 02:45:05,VALID,1002.75,VALID,0,INVALID,163.624,VALID,0,VALID,25.5532,VALID,106,VALID,0,
2011-06-24, 02:46:05,VALID,1002.74,VALID,0,INVALID,163.655,VALID,0,VALID,25.5727,VALID,144,VALID,0,
2011-06-24, 02:47:05,VALID,1002.72,VALID,0,INVALID,163.647,VALID,0,VALID,25.633,VALID,124,VALID,0,
2011-06-24, 02:48:05,VALID,1002.76,VALID,0,INVALID,163.624,VALID,0,VALID,25.6895,VALID,95,VALID,0,
2011-06-24, 02:49:05,VALID,1002.74,VALID,0,INVALID,163.624,VALID,0,VALID,25.709,VALID,133,VALID,0,
2011-06-24, 02:50:05,VALID,1002.75,VALID,0,INVALID,163.647,VALID,0,VALID,25.7674,VALID,102,VALID,0,
2011-06-24, 02:51:05,VALID,1002.72,VALID,0,INVALID,163.662,VALID,0,VALID,25.7674,VALID,92,VALID,0,
2011-06-24, 02:52:05,VALID,1002.69,VALID,0,INVALID,163.624,VALID,0,VALID,25.7869,VALID,82,VALID,0,
2011-06-24, 02:53:05,VALID,1002.73,VALID,0,INVALID,163.639,VALID,0,VALID,25.7655,VALID,119,VALID,0,
2011-06-24, 02:54:05,VALID,1002.72,VALID,0,INVALID,163.624,VALID,0,VALID,25.7869,VALID,109,VALID,0,
2011-06-24, 02:55:05,VALID,1002.71,VALID,0,INVALID,163.632,VALID,0,VALID,25.746,VALID,106,VALID,0,
2011-06-24, 02:56:05,VALID,1002.7,VALID,0,INVALID,163.624,VALID,0,VALID,25.8278,VALID,129,VALID,0,
2011-06-24, 02:57:05,VALID,1002.67,VALID,0,INVALID,163.609,VALID,0,VALID,25.7674,VALID,86,VALID,0,
2011-06-24, 02:58:05,VALID,1002.67,VALID,0,INVALID,163.601,VALID,0,VALID,25.7889,VALID,94,VALID,0,
2011-06-24, 02:59:05,VALID,1002.65,VALID,0,INVALID,163.647,VALID,0,VALID,25.7869,VALID,105,VALID,0,
2011-06-24, 03:00:05,VALID,1002.65,VALID,0,INVALID,163.639,VALID,0,VALID,25.8044,VALID,135,VALID,0,
2011-06-24, 03:01:05,VALID,1002.62,VALID,0,INVALID,163.632,VALID,0,VALID,25.8843,VALID,118,VALID,0,
2011-06-24, 03:02:05,VALID,1002.62,VALID,0,INVALID,163.624,VALID,0.100563,VALID,25.8823,VALID,118,VALID,0,
2011-06-24, 03:03:05,VALID,1002.63,VALID,0,INVALID,163.617,VALID,0,VALID,25.9038,VALID,129,VALID,0,
2011-06-24, 03:04:05,VALID,1002.66,VALID,0,INVALID,163.655,VALID,0,VALID,25.8453,VALID,124,VALID,0,
2011-06-24, 03:05:05,VALID,1002.65,VALID,0,INVALID,163.578,VALID,0,VALID,25.785,VALID,123,VALID,0,
2011-06-24, 03:06:05,VALID,1002.66,VALID,0,INVALID,163.632,VALID,0,VALID,25.7869,VALID,111,VALID,0,
2011-06-24, 03:07:05,VALID,1002.68,VALID,0,INVALID,163.639,VALID,0.100563,VALID,25.7655,VALID,109,VALID,0,
2011-06-24, 03:08:05,VALID,1002.7,VALID,0,INVALID,163.609,VALID,0,VALID,25.7674,VALID,126,VALID,0,
2011-06-24, 03:09:05,VALID,1002.68,VALID,0,INVALID,163.624,VALID,0,VALID,25.7285,VALID,79,VALID,0,
2011-06-24, 03:10:05,VALID,1002.66,VALID,0,INVALID,163.639,VALID,0,VALID,25.7285,VALID,130,VALID,0,
2011-06-24, 03:11:05,VALID,1002.62,VALID,0,INVALID,163.632,VALID,0,VALID,25.67,VALID,127,VALID,0,
2011-06-24, 03:12:05,VALID,1002.64,VALID,0,INVALID,163.624,VALID,0,VALID,25.6486,VALID,111,VALID,0,
2011-06-24, 03:13:05,VALID,1002.61,VALID,0,INVALID,163.647,VALID,0.100563,VALID,25.6292,VALID,88,VALID,0,
2011-06-24, 03:14:05,VALID,1002.61,VALID,0,INVALID,163.624,VALID,0,VALID,25.6097,VALID,125,VALID,0,
2011-06-24, 03:15:05,VALID,1002.62,VALID,0,INVALID,163.632,VALID,0,VALID,25.5921,VALID,120,VALID,0,
2011-06-24, 03:16:05,VALID,1002.63,VALID,0,INVALID,163.632,VALID,0.100563,VALID,25.6116,VALID,105,VALID,0,
2011-06-24, 03:17:05,VALID,1002.66,VALID,0,INVALID,163.647,VALID,0,VALID,25.5727,VALID,113,VALID,0,
2011-06-24, 03:18:05,VALID,1002.66,VALID,0,INVALID,163.639,VALID,0.100563,VALID,25.5513,VALID,127,VALID,0,
2011-06-24, 03:19:05,VALID,1002.66,VALID,0,INVALID,163.617,VALID,0.100563,VALID,25.5513,VALID,95,VALID,0,
2011-06-24, 03:20:05,VALID,1002.65,VALID,0,INVALID,163.67,VALID,0,VALID,25.5921,VALID,98,VALID,0,
2011-06-24, 03:21:05,VALID,1002.65,VALID,0,INVALID,163.655,VALID,0.100563,VALID,25.6311,VALID,102,VALID,0,
2011-06-24, 03:22:05,VALID,1002.62,VALID,0,INVALID,163.647,VALID,0,VALID,25.6486,VALID,124,VALID,0,
2011-06-24, 03:23:05,VALID,1002.61,VALID,0,INVALID,163.655,VALID,0,VALID,25.6681,VALID,115,VALID,0,
2011-06-24, 03:24:04,VALID,1002.6,VALID,0,INVALID,163.639,VALID,0,VALID,25.6681,VALID,94,VALID,0,
2011-06-24, 03:25:04,VALID,1002.62,VALID,0,INVALID,163.624,VALID,0.100563,VALID,25.6486,VALID,128,VALID,0,
2011-06-24, 03:26:04,VALID,1002.63,VALID,0,INVALID,163.632,VALID,0,VALID,25.6681,VALID,130,VALID,0,
2011-06-24, 03:27:04,VALID,1002.64,VALID,0,INVALID,163.632,VALID,0,VALID,25.6681,VALID,121,VALID,0,
2011-06-24, 03:28:04,VALID,1002.68,VALID,0,INVALID,163.624,VALID,0,VALID,25.6895,VALID,89,VALID,0,
2011-06-24, 03:29:04,VALID,1002.66,VALID,0,INVALID,163.639,VALID,0,VALID,25.709,VALID,90,VALID,0,
2011-06-24, 03:30:04,VALID,1002.68,VALID,0,INVALID,163.624,VALID,0,VALID,25.709,VALID,111,VALID,0,
2011-06-24, 03:31:04,VALID,1002.64,VALID,0,INVALID,163.624,VALID,0,VALID,25.6895,VALID,113,VALID,0,
2011-06-24, 03:32:04,VALID,1002.7,VALID,0,INVALID,163.601,VALID,0,VALID,25.6097,VALID,110,VALID,0,
2011-06-24, 03:33:04,VALID,1002.71,VALID,0,INVALID,163.632,VALID,0.100563,VALID,25.6116,VALID,130,VALID,0,
2011-06-24, 03:34:04,VALID,1002.73,VALID,0,INVALID,163.647,VALID,0,VALID,25.5318,VALID,92,VALID,0,
2011-06-24, 03:35:04,VALID,1002.74,VALID,0,INVALID,163.67,VALID,0,VALID,25.5142,VALID,102,VALID,0,
2011-06-24, 03:36:04,VALID,1002.74,VALID,0,INVALID,163.647,VALID,0,VALID,25.5318,VALID,97,VALID,0,
2011-06-24, 03:37:04,VALID,1002.73,VALID,0,INVALID,163.647,VALID,0.100563,VALID,25.5318,VALID,83,VALID,0,
2011-06-24, 03:38:04,VALID,1002.73,VALID,0,INVALID,163.655,VALID,0,VALID,25.5727,VALID,96,VALID,0,
2011-06-24, 03:39:04,VALID,1002.77,VALID,0,INVALID,163.639,VALID,0,VALID,25.5532,VALID,104,VALID,0,
2011-06-24, 03:40:04,VALID,1002.77,VALID,0,INVALID,163.647,VALID,0,VALID,25.5142,VALID,121,VALID,0,
2011-06-24, 03:41:04,VALID,1002.77,VALID,0,INVALID,163.617,VALID,0,VALID,25.4753,VALID,116,VALID,0,
2011-06-24, 03:42:04,VALID,1002.75,VALID,0,INVALID,163.67,VALID,0,VALID,25.4539,VALID,126,VALID,0,
2011-06-24, 03:43:04,VALID,1002.76,VALID,0,INVALID,163.655,VALID,0,VALID,25.4734,VALID,108,VALID,0,
2011-06-24, 03:44:04,VALID,1002.76,VALID,0,INVALID,163.647,VALID,0,VALID,25.4753,VALID,103,VALID,0,
2011-06-24, 03:45:04,VALID,1002.73,VALID,0,INVALID,163.647,VALID,0,VALID,25.4363,VALID,119,VALID,0,
2011-06-24, 03:46:04,VALID,1002.79,VALID,0,INVALID,163.678,VALID,0.100563,VALID,25.3974,VALID,108,VALID,0,
2011-06-24, 03:47:04,VALID,1002.78,VALID,0,INVALID,163.662,VALID,0.100563,VALID,25.3176,VALID,95,VALID,0,
2011-06-24, 03:48:04,VALID,1002.8,VALID,0,INVALID,163.655,VALID,0,VALID,25.3,VALID,59,VALID,0,
2011-06-24, 03:49:04,VALID,1002.78,VALID,0,INVALID,163.67,VALID,0,VALID,25.2202,VALID,47,VALID,0,
2011-06-24, 03:50:04,VALID,1002.79,VALID,0,INVALID,163.678,VALID,0.100563,VALID,25.1618,VALID,44,VALID,0,
2011-06-24, 03:51:04,VALID,1002.79,VALID,0,INVALID,163.67,VALID,0,VALID,25.1423,VALID,17,VALID,0,
2011-06-24, 03:52:04,VALID,1002.84,VALID,0,INVALID,163.685,VALID,0,VALID,25.0839,VALID,21,VALID,0,